Date String (YYYY-MM-DD hh:mm:ss) UTC,Instrument flags,Ambient pressure (hPa),Sample flow (lpm),Bypass flow (lpm),Sample temperature (°C),Ambient temperature (°C),ASC tube jacket temperature (°C),LED temperature (°C),Box temperature (°C),Sample RH (%),Span deviation,Mass concentration (μg/m³),Mass concentration (μg/m³),Mass concentration (μg/m³)
DateTimeUTC,F1_M11,P_M11,Q1_M11,Q2_M11,T1_M11,T2_M11,T3_M11,T4_M11,T5_M11,U1_M11,ZSPAN_M11,X0_M11,X2_M11,X1_M11
2022-08-29 14:00:00,,0829.2,5.00,0.00,30.3,29.2,00.0,39.0,32.1,23.0,0000.0,0011.70,0005.10,0004.16
2022-08-29 14:01:00,,0829.2,5.00,0.00,30.3,29.2,00.0,39.1,32.1,23.1,0000.0,0011.32,0005.04,0004.16
2022-08-29 14:02:00,,0829.2,5.00,0.00,30.3,29.2,00.0,39.1,32.1,22.8,0000.0,0010.81,0004.98,0004.17
2022-08-29 14:03:00,,0829.2,5.00,0.00,30.3,29.3,00.0,39.1,32.2,22.7,0000.0,0010.51,0004.94,0004.18
2022-08-29 14:04:00,,0829.3,4.99,0.00,30.4,29.3,00.0,39.1,32.2,22.6,0000.0,0010.42,0004.91,0004.20
2022-08-29 14:05:00,,0829.2,5.00,0.00,30.4,29.3,00.0,39.1,32.2,22.7,0000.0,0010.69,0004.91,0004.20
2022-08-29 14:06:00,,0829.3,5.00,0.00,30.4,29.3,00.0,39.1,32.2,22.2,0000.0,0010.44,0004.90,0004.20
2022-08-29 14:07:00,,0829.3,5.00,0.00,30.4,29.4,00.0,39.1,32.3,21.9,0000.0,0010.46,0004.91,0004.21
2022-08-29 14:08:00,,0829.3,4.99,0.00,30.4,28.9,00.0,39.1,32.3,22.0,0000.0,0010.34,0004.91,0004.21
2022-08-29 14:09:00,,0829.3,5.00,0.00,30.4,27.5,00.0,39.1,32.1,22.8,0000.0,0010.35,0004.93,0004.23
2022-08-29 14:10:00,,0829.2,5.00,0.00,30.4,27.0,00.0,39.1,32.1,23.0,0000.0,0010.77,0004.97,0004.24
2022-08-29 14:11:00,,0829.3,4.99,0.00,30.3,27.2,00.0,39.0,32.0,23.7,0000.0,0010.89,0004.99,0004.24
2022-08-29 14:12:00,,0829.3,5.00,0.00,30.2,27.5,00.0,39.0,31.9,24.0,0000.0,0011.20,0005.03,0004.24
2022-08-29 14:13:00,,0829.2,5.00,0.00,30.2,27.8,00.0,39.0,31.9,23.7,0000.0,0011.29,0005.05,0004.24
2022-08-29 14:14:00,,0829.2,5.00,0.00,30.1,28.1,00.0,38.9,31.9,23.8,0000.0,0011.85,0005.08,0004.24
2022-08-29 14:15:00,,0829.4,4.99,0.00,30.1,28.3,00.0,38.9,31.9,23.3,0000.0,0012.47,0005.10,0004.25
2022-08-29 14:16:00,,0829.4,5.01,0.00,30.1,28.4,00.0,38.9,31.9,23.3,0000.0,0012.63,0005.11,0004.25
2022-08-29 14:17:00,,0829.4,5.00,0.00,30.1,28.5,00.0,38.9,31.9,23.4,0000.0,0013.08,0005.09,0004.27
2022-08-29 14:18:00,,0829.4,4.99,0.00,30.1,28.7,00.0,38.9,31.9,23.0,0000.0,0013.34,0005.12,0004.27
2022-08-29 14:19:00,,0829.5,5.00,0.00,30.1,28.7,00.0,38.9,31.9,23.0,0000.0,0013.26,0005.17,0004.29
2022-08-29 14:20:00,,0829.4,5.00,0.00,30.1,28.8,00.0,38.9,31.9,23.2,0000.0,0013.19,0005.18,0004.29
2022-08-29 14:21:00,,0829.4,5.00,0.00,30.1,28.9,00.0,38.9,32.0,23.0,0000.0,0012.60,0005.18,0004.28
2022-08-29 14:22:00,,0829.4,5.00,0.00,30.2,29.0,00.0,38.9,32.0,22.9,0000.0,0012.82,0005.20,0004.28
2022-08-29 14:23:00,,0829.4,5.00,0.00,30.2,29.0,00.0,38.9,32.0,22.9,0000.0,0013.13,0005.22,0004.29
2022-08-29 14:24:00,,0829.4,5.00,0.00,30.2,29.1,00.0,38.9,32.0,22.9,0000.0,0013.29,0005.24,0004.29
2022-08-29 14:25:00,,0829.5,5.00,0.00,30.2,29.1,00.0,39.0,32.0,22.6,0000.0,0012.90,0005.23,0004.29
2022-08-29 14:26:00,,0829.5,5.01,0.00,30.2,29.1,00.0,39.0,32.1,22.4,0000.0,0012.57,0005.28,0004.29
2022-08-29 14:27:00,,0829.4,5.00,0.00,30.2,29.2,00.0,39.0,32.1,22.3,0000.0,0012.45,0005.32,0004.30
2022-08-29 14:28:00,,0829.5,5.00,0.00,30.3,29.2,00.0,39.0,32.1,21.9,0000.0,0012.14,0005.38,0004.30
2022-08-29 14:29:00,,0829.5,5.01,0.00,30.3,29.2,00.0,39.0,32.1,21.7,0000.0,0011.70,0005.37,0004.30
2022-08-29 14:30:00,,0829.5,4.98,0.00,30.3,29.1,00.0,39.0,32.2,21.3,0000.0,0013.16,0005.36,0004.30
2022-08-29 14:31:00,,0829.5,5.00,0.00,30.3,28.0,00.0,39.0,32.1,20.6,0000.0,0013.65,0005.28,0004.28
2022-08-29 14:32:00,,0829.5,5.00,0.00,30.3,27.0,00.0,39.0,32.0,21.1,0000.0,0014.20,0005.24,0004.28
2022-08-29 14:33:00,,0829.5,5.00,0.00,30.2,27.1,00.0,38.9,31.9,21.6,0000.0,0014.16,0005.23,0004.28
2022-08-29 14:34:00,,0829.5,5.00,0.00,30.1,27.4,00.0,38.9,31.8,22.8,0000.0,0014.16,0005.23,0004.28
2022-08-29 14:35:00,,0829.5,5.00,0.00,30.1,27.7,00.0,38.9,31.7,23.6,0000.0,0014.46,0005.17,0004.27
2022-08-29 14:36:00,,0829.5,5.00,0.00,30.1,27.9,00.0,38.9,31.8,23.1,0000.0,0014.57,0005.16,0004.27
2022-08-29 14:37:00,,0829.5,4.99,0.00,30.0,28.2,00.0,38.8,31.8,23.6,0000.0,0014.67,0005.13,0004.27
2022-08-29 14:38:00,,0829.5,5.00,0.00,30.0,28.3,00.0,38.8,31.8,24.2,0000.0,0015.53,0005.11,0004.29
2022-08-29 14:39:00,,0829.5,4.99,0.00,30.0,28.5,00.0,38.8,31.9,24.5,0000.0,0015.71,0005.10,0004.32
2022-08-29 14:40:00,,0829.5,5.00,0.00,30.1,28.6,00.0,38.8,31.9,24.4,0000.0,0017.05,0005.15,0004.36
2022-08-29 14:41:00,,0829.6,5.01,0.00,30.1,28.7,00.0,38.8,31.9,24.7,0000.0,0016.20,0005.19,0004.39
2022-08-29 14:42:00,,0829.5,5.00,0.00,30.1,28.8,00.0,38.9,31.9,25.0,0000.0,0016.18,0005.30,0004.44
2022-08-29 14:43:00,,0829.5,5.00,0.00,30.1,28.9,00.0,38.9,31.9,23.2,0000.0,0016.67,0005.36,0004.47
2022-08-29 14:44:00,,0829.5,5.00,0.00,30.1,28.9,00.0,38.9,32.0,24.0,0000.0,0017.19,0005.43,0004.49
2022-08-29 14:45:00,,0829.5,5.00,0.00,30.1,29.0,00.0,38.9,32.0,24.7,0000.0,0017.69,0005.45,0004.52
2022-08-29 14:46:00,,0829.5,4.98,0.00,30.1,29.0,00.0,38.9,32.0,25.6,0000.0,0017.60,0005.51,0004.54
2022-08-29 14:47:00,,0829.6,5.00,0.00,30.2,29.1,00.0,38.9,32.0,25.6,0000.0,0017.57,0005.56,0004.56
2022-08-29 14:48:00,,0829.6,5.00,0.00,30.2,29.1,00.0,38.9,32.0,25.8,0000.0,0018.05,0005.63,0004.60
2022-08-29 14:49:00,,0829.6,5.00,0.00,30.2,29.2,00.0,38.9,32.1,25.6,0000.0,0016.73,0005.62,0004.62
2022-08-29 14:50:00,,0829.7,5.00,0.00,30.2,29.2,00.0,39.0,32.1,24.6,0000.0,0016.58,0005.64,0004.62
2022-08-29 14:51:00,,0829.6,5.01,0.00,30.2,29.2,00.0,39.0,32.1,23.9,0000.0,0016.03,0005.68,0004.61
2022-08-29 14:52:00,,0829.7,4.99,0.00,30.3,28.4,00.0,39.0,32.1,24.6,0000.0,0016.28,0005.70,0004.61
2022-08-29 14:53:00,,0829.7,5.01,0.00,30.2,27.2,00.0,38.9,31.9,24.0,0000.0,0017.53,0005.70,0004.62
2022-08-29 14:54:00,,0829.8,4.99,0.00,30.2,26.9,00.0,38.9,31.9,23.8,0000.0,0017.20,0005.70,0004.65
2022-08-29 14:55:00,,0829.8,5.01,0.00,30.1,27.2,00.0,38.8,31.8,22.7,0000.0,0016.73,0005.69,0004.67
2022-08-29 14:56:00,,0829.8,5.00,0.00,30.0,27.5,00.0,38.8,31.7,22.5,0000.0,0016.58,0005.71,0004.68
2022-08-29 14:57:00,,0829.8,5.00,0.00,30.0,27.8,00.0,38.8,31.7,22.9,0000.0,0016.72,0005.79,0004.70
2022-08-29 14:58:00,,0829.8,4.99,0.00,30.0,28.0,00.0,38.8,31.7,23.0,0000.0,0016.84,0005.83,0004.71
2022-08-29 14:59:00,,0829.8,5.00,0.00,30.0,28.2,00.0,38.8,31.7,23.2,0000.0,0017.00,0005.90,0004.71
